Stündliche Wetter Kyzyl-Tash

Heute, 10 Mai, Montag

Zeit Temperatur Niederschläge Wind Luftdruck Luftfeuchtigkeit
00:00 +7°C° 0 mm 2 m/S 630 mmHg 46%
01:00 +7°C° 0 mm 2 m/S 630 mmHg 47%
02:00 +6°C° 0 mm 2 m/S 630 mmHg 48%
03:00 +6°C° 0 mm 2 m/S 629 mmHg 49%
04:00 +6°C° 0 mm 2 m/S 630 mmHg 49%
05:00 +7°C° 0 mm 2 m/S 630 mmHg 49%
06:00 +7°C° 0 mm 1 m/S 630 mmHg 54%
07:00 +7°C° 0 mm 2 m/S 630 mmHg 52%
08:00 +9°C° 0 mm 2 m/S 630 mmHg 51%
09:00 +10°C° 0 mm 2 m/S 630 mmHg 50%
10:00 +12°C° 0 mm 2 m/S 630 mmHg 47%
11:00 +13°C° 0 mm 2 m/S 630 mmHg 45%
12:00 +13°C° 0 mm 3 m/S 630 mmHg 42%
13:00 +13°C° 0 mm 3 m/S 630 mmHg 41%
14:00 +14°C° 0 mm 3 m/S 630 mmHg 40%
15:00 +14°C° 0 mm 4 m/S 630 mmHg 40%
16:00 +13°C° 0 mm 3 m/S 630 mmHg 44%
17:00 +14°C° 0 mm 2 m/S 630 mmHg 48%
18:00 +13°C° 0 mm 2 m/S 630 mmHg 53%
19:00 +12°C° 0 mm 2 m/S 629 mmHg 61%
20:00 +9°C° 0 mm 2 m/S 629 mmHg 69%
21:00 +8°C° 0 mm 2 m/S 629 mmHg 77%
22:00 +8°C° 0 mm 2 m/S 629 mmHg 78%
23:00 +9°C° 0 mm 1 m/S 628 mmHg 80%

Morgen, 11 Mai, Dienstag

Zeit Temperatur Niederschläge Wind Luftdruck Luftfeuchtigkeit
00:00 +8°C° 0 mm 1 m/S 628 mmHg 82%
01:00 +8°C° 0.2 mm 1 m/S 628 mmHg 83%
02:00 +8°C° 0.2 mm 1 m/S 628 mmHg 84%
03:00 +8°C° 0.2 mm 1 m/S 627 mmHg 85%
04:00 +7°C° 0.9 mm 1 m/S 627 mmHg 88%
05:00 +7°C° 0.9 mm 1 m/S 628 mmHg 92%
06:00 +7°C° 0.9 mm 1 m/S 628 mmHg 95%
07:00 +8°C° 0.2 mm 1 m/S 628 mmHg 88%
08:00 +9°C° 0.2 mm 1 m/S 628 mmHg 81%
09:00 +9°C° 0.2 mm 2 m/S 628 mmHg 74%
10:00 +10°C° 0.3 mm 2 m/S 628 mmHg 69%
11:00 +10°C° 0.3 mm 2 m/S 628 mmHg 65%
12:00 +12°C° 0.3 mm 2 m/S 628 mmHg 60%
13:00 +12°C° 0.4 mm 2 m/S 628 mmHg 61%
14:00 +12°C° 0.4 mm 2 m/S 628 mmHg 62%
15:00 +12°C° 0.4 mm 2 m/S 628 mmHg 64%
16:00 +10°C° 0.4 mm 2 m/S 628 mmHg 67%
17:00 +10°C° 0.4 mm 2 m/S 628 mmHg 69%
18:00 +9°C° 0.4 mm 2 m/S 629 mmHg 72%
19:00 +9°C° 0.2 mm 2 m/S 629 mmHg 77%
20:00 +8°C° 0.2 mm 2 m/S 629 mmHg 83%
21:00 +8°C° 0.2 mm 1 m/S 629 mmHg 88%
22:00 +8°C° 0.2 mm 1 m/S 629 mmHg 88%
23:00 +8°C° 0.2 mm 1 m/S 629 mmHg 89%

übermorgen, 12 Mai, Mittwoch

Zeit Temperatur Niederschläge Wind Luftdruck Luftfeuchtigkeit
00:00 +7°C° 0.2 mm 1 m/S 629 mmHg 90%
01:00 +7°C° 0.3 mm 1 m/S 629 mmHg 91%
02:00 +7°C° 0.3 mm 1 m/S 629 mmHg 93%
03:00 +6°C° 0.3 mm 1 m/S 629 mmHg 95%
04:00 +6°C° 0.4 mm 1 m/S 629 mmHg 95%
05:00 +6°C° 0.4 mm 1 m/S 629 mmHg 95%
06:00 +6°C° 0.4 mm 1 m/S 629 mmHg 95%
07:00 +6°C° 0.5 mm 1 m/S 629 mmHg 94%
08:00 +5°C° 0.5 mm 2 m/S 629 mmHg 92%
09:00 +5°C° 0.5 mm 2 m/S 629 mmHg 91%
10:00 +5°C° 1 mm 2 m/S 629 mmHg 90%
11:00 +6°C° 1 mm 2 m/S 629 mmHg 88%
12:00 +5°C° 1 mm 3 m/S 629 mmHg 87%
13:00 +4°C° 1.5 mm 3 m/S 629 mmHg 89%
14:00 +5°C° 1.5 mm 2 m/S 629 mmHg 91%
15:00 +5°C° 1.5 mm 2 m/S 629 mmHg 92%
16:00 +5°C° 0.6 mm 2 m/S 629 mmHg 92%
17:00 +5°C° 0.6 mm 2 m/S 629 mmHg 91%
18:00 +5°C° 0.6 mm 2 m/S 629 mmHg 90%
19:00 +4°C° 0.3 mm 2 m/S 630 mmHg 92%
20:00 +4°C° 0.3 mm 2 m/S 630 mmHg 94%
21:00 +4°C° 0.3 mm 2 m/S 630 mmHg 96%
22:00 +4°C° 0.6 mm 2 m/S 630 mmHg 96%
23:00 +3°C° 0.6 mm 2 m/S 630 mmHg 96%

13 Mai, Donnerstag

Zeit Temperatur Niederschläge Wind Luftdruck Luftfeuchtigkeit
00:00 +3°C° 0.6 mm 2 m/S 630 mmHg 97%
01:00 +3°C° 0.5 mm 2 m/S 630 mmHg 97%
02:00 +3°C° 0.5 mm 2 m/S 630 mmHg 97%
03:00 +3°C° 0.5 mm 2 m/S 631 mmHg 96%
04:00 +3°C° 0.2 mm 2 m/S 631 mmHg 96%
05:00 +3°C° 0.2 mm 2 m/S 631 mmHg 95%
06:00 +3°C° 0.2 mm 2 m/S 631 mmHg 94%
07:00 +3°C° 0.1 mm 2 m/S 632 mmHg 91%
08:00 +4°C° 0.1 mm 2 m/S 632 mmHg 88%
09:00 +5°C° 0.1 mm 2 m/S 632 mmHg 85%
10:00 +5°C° 0.1 mm 2 m/S 632 mmHg 82%
11:00 +6°C° 0.1 mm 2 m/S 632 mmHg 80%
12:00 +6°C° 0.1 mm 2 m/S 632 mmHg 77%
13:00 +7°C° 0.1 mm 2 m/S 632 mmHg 74%
14:00 +7°C° 0.1 mm 2 m/S 632 mmHg 70%
15:00 +8°C° 0.1 mm 2 m/S 632 mmHg 67%
16:00 +8°C° 0.1 mm 2 m/S 632 mmHg 67%
17:00 +7°C° 0.1 mm 2 m/S 632 mmHg 68%
18:00 +8°C° 0.1 mm 1 m/S 632 mmHg 69%
19:00 +7°C° 0 mm 1 m/S 632 mmHg 74%
20:00 +5°C° 0 mm 1 m/S 632 mmHg 79%
21:00 +4°C° 0 mm 1 m/S 633 mmHg 84%
22:00 +4°C° 0 mm 1 m/S 633 mmHg 84%
23:00 +3°C° 0 mm 1 m/S 633 mmHg 83%

14 Mai, Freitag

Zeit Temperatur Niederschläge Wind Luftdruck Luftfeuchtigkeit
00:00 +3°C° 0 mm 1 m/S 633 mmHg 82%
01:00 +3°C° 0 mm 1 m/S 633 mmHg 81%
02:00 +3°C° 0 mm 1 m/S 633 mmHg 80%
03:00 +3°C° 0 mm 1 m/S 632 mmHg 79%
04:00 +4°C° 0 mm 1 m/S 633 mmHg 77%
05:00 +4°C° 0 mm 1 m/S 633 mmHg 75%
06:00 +5°C° 0 mm 1 m/S 633 mmHg 73%
07:00 +6°C° 0 mm 1 m/S 632 mmHg 70%
08:00 +7°C° 0 mm 1 m/S 632 mmHg 67%
09:00 +8°C° 0 mm 2 m/S 632 mmHg 64%
10:00 +8°C° 0.2 mm 2 m/S 632 mmHg 62%
11:00 +9°C° 0.2 mm 3 m/S 632 mmHg 61%
12:00 +10°C° 0.2 mm 4 m/S 633 mmHg 59%
13:00 +8°C° 0.4 mm 4 m/S 633 mmHg 65%
14:00 +8°C° 0.4 mm 4 m/S 633 mmHg 71%
15:00 +7°C° 0.4 mm 4 m/S 633 mmHg 77%
16:00 +7°C° 0.3 mm 4 m/S 633 mmHg 76%
17:00 +6°C° 0.3 mm 4 m/S 634 mmHg 74%
18:00 +6°C° 0.3 mm 4 m/S 634 mmHg 73%
19:00 +5°C° 0 mm 3 m/S 635 mmHg 77%
20:00 +5°C° 0 mm 2 m/S 635 mmHg 81%
21:00 +3°C° 0 mm 2 m/S 636 mmHg 86%
22:00 +3°C° 0 mm 2 m/S 636 mmHg 85%
23:00 +4°C° 0 mm 1 m/S 636 mmHg 85%

15 Mai, Samstag

Zeit Temperatur Niederschläge Wind Luftdruck Luftfeuchtigkeit
00:00 +3°C° 0 mm 1 m/S 636 mmHg 85%
01:00 +3°C° 0 mm 1 m/S 636 mmHg 84%
02:00 +3°C° 0 mm 1 m/S 636 mmHg 82%
03:00 +3°C° 0 mm 1 m/S 636 mmHg 81%
04:00 +3°C° 0 mm 1 m/S 636 mmHg 76%
05:00 +4°C° 0 mm 1 m/S 636 mmHg 71%
06:00 +5°C° 0 mm 1 m/S 636 mmHg 66%
07:00 +6°C° 0 mm 1 m/S 636 mmHg 60%
08:00 +8°C° 0 mm 1 m/S 636 mmHg 53%
09:00 +9°C° 0 mm 1 m/S 636 mmHg 47%
10:00 +9°C° 0 mm 2 m/S 636 mmHg 47%
11:00 +12°C° 0 mm 2 m/S 636 mmHg 46%
12:00 +12°C° 0 mm 3 m/S 636 mmHg 45%
13:00 +12°C° 0 mm 3 m/S 636 mmHg 46%
14:00 +13°C° 0 mm 4 m/S 636 mmHg 46%
15:00 +13°C° 0 mm 4 m/S 636 mmHg 47%
16:00 +13°C° 0 mm 4 m/S 636 mmHg 48%
17:00 +12°C° 0 mm 4 m/S 636 mmHg 50%
18:00 +12°C° 0 mm 3 m/S 636 mmHg 51%
19:00 +12°C° 0 mm 2 m/S 636 mmHg 57%
20:00 +9°C° 0 mm 2 m/S 636 mmHg 63%
21:00 +9°C° 0 mm 1 m/S 635 mmHg 70%
22:00 +8°C° 0 mm 1 m/S 635 mmHg 71%
23:00 +8°C° 0 mm 1 m/S 635 mmHg 72%
Mehr zeigen

Wir brauchen deine Erlaubnis

Meteoprog und unser Service Anbieter werden persönliche Daten aufbewahren, so wie Cookies, Geräte Bezeichnung oder ähnliche Technologien von deinem Gerät und Prozess, so wie Persönliche Daten Inhalte und Werbungen, genauso wie social Media und den Verkehr zu analysieren.

  • Aufbewahrung und/oder Zugang zu deiner Geräte Informationen.

    Cookies, Geräte Bezeichnung oder andere Informationen, können aufbewahrt oder Zugang zu deinem Gerät erhalten, für den Grund, der oben angegeben wird.

  • Personalisierte Werbung und Inhalte, Messungen, Einblick in das Publikum und Produkt Entwicklung.

    Werbungen und Inhalte können personalisiert werden, basierend auf ein Profil. Mehr Daten können besser personalisierte Werbungen und Inhalte hinzufügen. Werbung und Inhalte können gezeigt und gemessen werden. Einblicke über das Publikum, welche die Werbung gesehen haben und den Inhalt, können abgeleitet werden. So wie Daten können genutzt werden, um es zu verbessern oder die Benutzer Erfahrung zu verbessern das System und die Software.

Wenn du “Ich stimme zu” klickst, erlaubst du uns, die Cookies zu benutzen die Geräte Bezeichnung, den Web oder ähnliche Technologien zu benutzen. Deine Settings, können in deinem Gerät bei deinem Browser geändert werden.

Für den bestimmten Zweck, berechtigten Interessen beruhen darauf, mehr als auf den Inhalt. Du kannst mehr darüber in unseren Privaten und Cookie Politik lesen.